SCO25DW EGPF-EGBB

Flight info

Callsign SCO25DW
Flight time 0h 45m
Altitude 25000
Route NORBO T256 RIPNO/N0408F270 DCT AKOMU DCT VAMEB UL612 CROFT
Aircraft A320/M-SDE3FGHIRWY/LB1

Departure

Time 2026-04-28 17:04
Airport Glasgow Airport (EGPF)

Arrival

Time 2026-04-28 17:49
Airport Birmingham Airport (EGBB)
Time Latitude Longitude Altitude Speed Heading
2026-04-28 16:44 55.86574 -4.43689 30 ft 0 kts 254°
2026-04-28 16:53 55.86577 -4.43668 30 ft 3 kts 254°
2026-04-28 16:53 55.86582 -4.43638 29 ft 3 kts 254°
2026-04-28 16:54 55.86569 -4.43719 32 ft 0 kts 254°
2026-04-28 16:54 55.86571 -4.43705 30 ft 3 kts 254°
2026-04-28 16:55 55.86577 -4.43664 30 ft 2 kts 254°
2026-04-28 16:55 55.86582 -4.43635 29 ft 3 kts 254°
2026-04-28 16:55 55.86586 -4.43605 29 ft 2 kts 262°
2026-04-28 16:55 55.86586 -4.43575 30 ft 2 kts 279°
2026-04-28 16:56 55.86580 -4.43547 30 ft 2 kts 314°
2026-04-28 16:56 55.86572 -4.43534 30 ft 0 kts 339°
2026-04-28 16:56 55.86573 -4.43534 30 ft 0 kts 339°
2026-04-28 16:58 55.86595 -4.43548 30 ft 9 kts 341°
2026-04-28 16:58 55.86695 -4.43603 30 ft 16 kts 343°
2026-04-28 16:58 55.86737 -4.43716 30 ft 11 kts 258°
2026-04-28 16:59 55.86695 -4.43826 28 ft 11 kts 226°
2026-04-28 16:59 55.86660 -4.43888 30 ft 0 kts 226°
2026-04-28 16:59 55.86633 -4.43938 31 ft 18 kts 225°
2026-04-28 17:00 55.86535 -4.44118 33 ft 21 kts 229°
2026-04-28 17:00 55.86435 -4.44307 33 ft 22 kts 226°
2026-04-28 17:00 55.86325 -4.44515 31 ft 24 kts 226°
2026-04-28 17:00 55.86252 -4.44699 31 ft 8 kts 294°
2026-04-28 17:01 55.86282 -4.44762 32 ft 5 kts 323°
2026-04-28 17:01 55.86285 -4.44767 32 ft 0 kts 320°
2026-04-28 17:03 55.86295 -4.44783 32 ft 0 kts 317°
2026-04-28 17:03 55.86296 -4.44786 32 ft 3 kts 317°
2026-04-28 17:03 55.86392 -4.44841 34 ft 16 kts 31°
2026-04-28 17:04 55.87224 -4.43258 36 ft 165 kts 46°
2026-04-28 17:04 55.88017 -4.41756 830 ft 167 kts 47°
2026-04-28 17:05 55.89584 -4.38710 2226 ft 186 kts 48°
2026-04-28 17:05 55.90516 -4.36857 3002 ft 197 kts 48°
2026-04-28 17:05 55.91359 -4.35153 4571 ft 175 kts 49°
2026-04-28 17:06 55.93347 -4.32132 6132 ft 221 kts 12°
2026-04-28 17:06 55.94916 -4.32078 7099 ft 233 kts 357°
2026-04-28 17:06 55.98437 -4.34503 7434 ft 335 kts 310°
2026-04-28 17:07 55.99593 -4.38315 7417 ft 375 kts 284°
2026-04-28 17:07 55.99687 -4.43127 7776 ft 393 kts 258°
2026-04-28 17:07 55.98602 -4.47600 8657 ft 396 kts 236°
2026-04-28 17:07 55.96802 -4.51307 9510 ft 399 kts 219°
2026-04-28 17:08 55.94532 -4.54112 10288 ft 404 kts 213°
2026-04-28 17:08 55.92178 -4.56910 11102 ft 409 kts 214°
2026-04-28 17:08 55.89908 -4.60011 11922 ft 414 kts 220°
2026-04-28 17:08 55.87752 -4.63550 12739 ft 419 kts 224°
2026-04-28 17:09 55.85650 -4.67197 13496 ft 423 kts 223°
2026-04-28 17:09 55.83362 -4.70526 14208 ft 428 kts 216°
2026-04-28 17:09 55.80926 -4.73492 14850 ft 432 kts 211°
2026-04-28 17:09 55.78150 -4.75517 15495 ft 435 kts 194°
2026-04-28 17:10 55.75151 -4.76407 16062 ft 440 kts 185°
2026-04-28 17:10 55.72038 -4.76582 16592 ft 443 kts 179°
2026-04-28 17:10 55.68944 -4.76391 17098 ft 446 kts 177°
2026-04-28 17:10 55.65839 -4.76134 17597 ft 448 kts 178°
2026-04-28 17:11 55.62758 -4.75989 18092 ft 449 kts 179°
2026-04-28 17:11 55.59657 -4.75396 18594 ft 449 kts 165°
2026-04-28 17:11 55.56757 -4.73355 19092 ft 450 kts 152°
2026-04-28 17:11 55.54959 -4.71398 19430 ft 450 kts 145°
2026-04-28 17:12 55.51775 -4.66700 20091 ft 450 kts 137°
2026-04-28 17:12 55.49542 -4.62841 20599 ft 450 kts 135°
2026-04-28 17:12 55.47313 -4.58976 21096 ft 449 kts 136°
2026-04-28 17:12 55.45023 -4.55238 21591 ft 449 kts 139°
2026-04-28 17:13 55.43434 -4.52806 21928 ft 448 kts 140°
2026-04-28 17:13 55.41030 -4.49327 22428 ft 447 kts 142°
2026-04-28 17:13 55.38581 -4.45934 22929 ft 447 kts 142°
2026-04-28 17:13 55.36127 -4.42583 23428 ft 446 kts 142°
2026-04-28 17:14 55.33685 -4.39238 23930 ft 445 kts 142°
2026-04-28 17:14 55.31250 -4.35871 24430 ft 445 kts 142°
2026-04-28 17:14 55.28834 -4.32494 24861 ft 446 kts 142°
2026-04-28 17:14 55.26398 -4.29069 24985 ft 454 kts 141°
2026-04-28 17:15 55.23916 -4.25565 25015 ft 461 kts 141°
2026-04-28 17:15 55.21468 -4.22107 25014 ft 440 kts 141°
2026-04-28 17:15 55.19143 -4.18834 25011 ft 419 kts 141°
2026-04-28 17:15 55.17035 -4.15577 25002 ft 400 kts 134°
2026-04-28 17:16 55.15145 -4.12085 25015 ft 382 kts 134°
2026-04-28 17:16 55.13350 -4.08779 25015 ft 367 kts 134°
2026-04-28 17:16 55.11590 -4.05540 25016 ft 368 kts 134°
2026-04-28 17:16 55.09835 -4.02303 25008 ft 368 kts 134°
2026-04-28 17:17 55.08075 -3.99059 25012 ft 368 kts 134°
2026-04-28 17:17 55.06312 -3.95815 25013 ft 368 kts 134°
2026-04-28 17:17 55.04553 -3.92588 25002 ft 368 kts 134°
2026-04-28 17:17 55.02782 -3.89354 25006 ft 368 kts 134°
2026-04-28 17:18 55.01017 -3.86141 24999 ft 368 kts 134°
2026-04-28 17:18 54.99245 -3.82918 25007 ft 368 kts 134°
2026-04-28 17:18 54.97474 -3.79698 25002 ft 368 kts 134°
2026-04-28 17:18 54.95730 -3.76525 25015 ft 368 kts 134°
2026-04-28 17:19 54.93814 -3.73494 25014 ft 367 kts 143°
2026-04-28 17:19 54.91719 -3.71071 25016 ft 367 kts 149°
2026-04-28 17:19 54.89537 -3.68753 25010 ft 367 kts 149°
2026-04-28 17:19 54.87362 -3.66436 25002 ft 367 kts 149°
2026-04-28 17:20 54.85187 -3.64118 25002 ft 367 kts 149°
2026-04-28 17:20 54.83714 -3.62548 25017 ft 367 kts 149°
2026-04-28 17:20 54.80833 -3.59484 25006 ft 367 kts 149°
2026-04-28 17:20 54.78652 -3.57177 25003 ft 367 kts 149°
2026-04-28 17:21 54.76471 -3.54876 25016 ft 367 kts 149°
2026-04-28 17:21 54.74281 -3.52565 25017 ft 375 kts 149°
2026-04-28 17:21 54.72026 -3.50189 25003 ft 381 kts 149°
2026-04-28 17:22 54.67498 -3.45424 25006 ft 381 kts 149°
2026-04-28 17:22 54.65235 -3.43041 25016 ft 381 kts 149°
2026-04-28 17:22 54.62975 -3.40659 25015 ft 381 kts 149°
2026-04-28 17:23 54.58447 -3.35907 25003 ft 381 kts 149°
2026-04-28 17:23 54.56174 -3.33531 25008 ft 381 kts 149°
2026-04-28 17:23 54.53911 -3.31163 25000 ft 381 kts 149°
2026-04-28 17:23 54.51650 -3.28803 25005 ft 381 kts 149°
2026-04-28 17:24 54.49379 -3.26436 25015 ft 381 kts 149°
2026-04-28 17:24 54.47115 -3.24081 25016 ft 381 kts 149°
2026-04-28 17:24 54.44841 -3.21722 25016 ft 381 kts 149°
2026-04-28 17:24 54.42574 -3.19372 25017 ft 381 kts 149°
2026-04-28 17:25 54.40300 -3.17017 25008 ft 381 kts 149°
2026-04-28 17:25 54.35766 -3.12319 25006 ft 381 kts 149°
2026-04-28 17:25 54.33499 -3.09974 25000 ft 381 kts 149°
2026-04-28 17:26 54.31228 -3.07629 25009 ft 381 kts 149°
2026-04-28 17:26 54.28959 -3.05289 25015 ft 381 kts 149°
2026-04-28 17:26 54.26688 -3.02959 25016 ft 381 kts 149°
2026-04-28 17:26 54.24410 -3.00625 25016 ft 381 kts 149°
2026-04-28 17:27 54.22143 -2.98300 25015 ft 381 kts 149°
2026-04-28 17:27 54.19868 -2.95972 25011 ft 381 kts 149°
2026-04-28 17:27 54.17593 -2.93661 25004 ft 381 kts 152°
2026-04-28 17:27 54.15192 -2.91731 25006 ft 381 kts 157°
2026-04-28 17:28 54.12761 -2.89960 25015 ft 381 kts 157°
2026-04-28 17:28 54.07887 -2.86411 25014 ft 381 kts 157°
2026-04-28 17:28 54.05481 -2.84663 25016 ft 384 kts 157°
2026-04-28 17:29 54.02933 -2.82819 25008 ft 402 kts 157°
2026-04-28 17:29 54.00367 -2.80963 25016 ft 408 kts 157°
2026-04-28 17:29 53.97758 -2.79077 25016 ft 408 kts 157°
2026-04-28 17:30 53.92535 -2.75298 25006 ft 408 kts 157°
2026-04-28 17:30 53.87312 -2.71520 25009 ft 408 kts 157°
2026-04-28 17:30 53.84697 -2.69627 25003 ft 408 kts 157°
2026-04-28 17:31 53.82077 -2.67738 24541 ft 409 kts 157°
2026-04-28 17:31 53.76857 -2.64001 23237 ft 405 kts 157°
2026-04-28 17:32 53.71678 -2.60299 21939 ft 404 kts 157°
2026-04-28 17:32 53.69100 -2.58462 21282 ft 403 kts 157°
2026-04-28 17:32 53.66517 -2.56623 20626 ft 402 kts 157°
2026-04-28 17:32 53.63950 -2.54796 20141 ft 397 kts 157°
2026-04-28 17:33 53.61493 -2.52807 19984 ft 384 kts 152°
2026-04-28 17:33 53.59225 -2.50655 19999 ft 365 kts 149°
2026-04-28 17:33 53.57110 -2.48460 20009 ft 348 kts 148°
2026-04-28 17:33 53.55786 -2.47038 20008 ft 338 kts 148°
2026-04-28 17:34 53.53202 -2.44246 20013 ft 333 kts 148°
2026-04-28 17:34 53.51225 -2.42138 20009 ft 339 kts 148°
2026-04-28 17:34 53.49216 -2.40034 20013 ft 339 kts 148°
2026-04-28 17:34 53.47207 -2.37957 20007 ft 339 kts 149°
2026-04-28 17:35 53.45193 -2.35891 20010 ft 339 kts 149°
2026-04-28 17:35 53.43184 -2.33840 20008 ft 339 kts 149°
2026-04-28 17:35 53.41159 -2.31778 20007 ft 339 kts 149°
2026-04-28 17:35 53.39147 -2.29729 20005 ft 339 kts 149°
2026-04-28 17:36 53.37127 -2.27674 20007 ft 339 kts 149°
2026-04-28 17:36 53.35107 -2.25630 20009 ft 339 kts 150°
2026-04-28 17:36 53.33064 -2.23657 19693 ft 342 kts 151°
2026-04-28 17:36 53.30967 -2.21715 19051 ft 346 kts 152°
2026-04-28 17:37 53.28834 -2.19781 18435 ft 350 kts 152°
2026-04-28 17:37 53.26689 -2.17846 17808 ft 353 kts 152°
2026-04-28 17:37 53.24525 -2.15889 17182 ft 355 kts 152°
2026-04-28 17:37 53.22344 -2.13903 16554 ft 358 kts 152°
2026-04-28 17:38 53.20158 -2.11901 15916 ft 360 kts 152°
2026-04-28 17:38 53.17960 -2.09881 15299 ft 361 kts 151°
2026-04-28 17:38 53.15761 -2.07852 14671 ft 362 kts 151°
2026-04-28 17:38 53.13584 -2.05839 14052 ft 363 kts 151°
2026-04-28 17:39 53.11346 -2.03776 13416 ft 363 kts 151°
2026-04-28 17:39 53.09137 -2.01752 12789 ft 362 kts 152°
2026-04-28 17:39 53.04733 -1.97841 11539 ft 359 kts 159°
2026-04-28 17:40 53.02282 -1.97012 10909 ft 356 kts 175°
2026-04-28 17:40 52.99817 -1.96657 10280 ft 353 kts 175°
2026-04-28 17:40 52.97376 -1.96345 9654 ft 351 kts 176°
2026-04-28 17:40 52.94954 -1.96052 9139 ft 345 kts 176°
2026-04-28 17:41 52.92635 -1.95773 8990 ft 319 kts 176°
2026-04-28 17:41 52.90537 -1.95512 9004 ft 289 kts 176°
2026-04-28 17:41 52.88547 -1.95256 9006 ft 286 kts 176°
2026-04-28 17:41 52.86590 -1.95004 9006 ft 286 kts 176°
2026-04-28 17:42 52.84609 -1.94749 9011 ft 286 kts 176°
2026-04-28 17:42 52.83267 -1.94574 9004 ft 286 kts 176°
2026-04-28 17:42 52.80574 -1.94223 6773 ft 310 kts 176°
2026-04-28 17:42 52.78319 -1.93931 4320 ft 331 kts 176°
2026-04-28 17:43 52.75978 -1.93627 1870 ft 346 kts 176°
2026-04-28 17:43 52.73748 -1.93335 2003 ft 305 kts 175°
2026-04-28 17:43 52.71757 -1.93072 2005 ft 276 kts 176°
2026-04-28 17:43 52.69906 -1.92829 2007 ft 257 kts 176°
2026-04-28 17:44 52.68222 -1.92610 2006 ft 228 kts 176°
2026-04-28 17:44 52.66702 -1.92415 2004 ft 210 kts 176°
2026-04-28 17:44 52.65270 -1.92232 2009 ft 207 kts 176°
2026-04-28 17:44 52.63855 -1.92050 2004 ft 207 kts 176°
2026-04-28 17:45 52.62419 -1.91864 2006 ft 207 kts 176°
2026-04-28 17:45 52.60968 -1.91676 2006 ft 207 kts 176°
2026-04-28 17:45 52.59565 -1.91349 2011 ft 207 kts 158°
2026-04-28 17:45 52.58287 -1.90194 2006 ft 208 kts 146°
2026-04-28 17:46 52.57226 -1.88646 2007 ft 209 kts 129°
2026-04-28 17:46 52.56227 -1.86945 2005 ft 201 kts 143°
2026-04-28 17:46 52.55132 -1.85669 2003 ft 185 kts 147°
2026-04-28 17:46 52.54111 -1.84532 1996 ft 169 kts 147°
2026-04-28 17:47 52.53176 -1.83490 1934 ft 157 kts 147°
2026-04-28 17:47 52.52275 -1.82485 1724 ft 156 kts 147°
2026-04-28 17:47 52.51381 -1.81488 1532 ft 155 kts 147°
2026-04-28 17:47 52.50796 -1.80835 1417 ft 154 kts 147°
2026-04-28 17:48 52.49664 -1.79571 1137 ft 143 kts 147°
2026-04-28 17:48 52.48838 -1.78651 945 ft 143 kts 147°
2026-04-28 17:48 52.48020 -1.77739 752 ft 143 kts 147°
2026-04-28 17:48 52.47197 -1.76822 573 ft 142 kts 147°
2026-04-28 17:49 52.46381 -1.75913 377 ft 142 kts 147°
2026-04-28 17:49 52.45617 -1.75058 326 ft 123 kts 147°
2026-04-28 17:49 52.45062 -1.74441 329 ft 32 kts 146°
2026-04-28 17:49 52.44941 -1.74474 328 ft 24 kts 251°
2026-04-28 17:50 52.45087 -1.74864 327 ft 56 kts 329°
2026-04-28 17:50 52.45303 -1.75088 325 ft 15 kts 23°
2026-04-28 17:50 52.45329 -1.75025 325 ft 17 kts 72°
2026-04-28 17:50 52.45419 -1.74715 326 ft 32 kts 50°
2026-04-28 17:51 52.45423 -1.74399 324 ft 29 kts 116°
2026-04-28 17:51 52.45329 -1.74109 327 ft 29 kts 117°
2026-04-28 17:51 52.45203 -1.73908 329 ft 22 kts 130°
2026-04-28 17:51 52.45089 -1.73778 331 ft 20 kts 155°
2026-04-28 17:52 52.44962 -1.73673 333 ft 21 kts 146°
2026-04-28 17:52 52.44917 -1.73502 333 ft 16 kts 75°
2026-04-28 17:52 52.45009 -1.73358 332 ft 0 kts 330°
2026-04-28 17:53 52.45011 -1.73361 332 ft 0 kts 329°